Location: Follega
(52.8850°N, 5.7362°E)
Time: 23:47:33
(UTC+00:00)

STARLINK-1236 - Visible Passes

Search period start: 01 October 2020 00:00
Search period end: 11 October 2020 00:00
Orbit: 549 x 550 km, 53.0° (Epoch: 01 October)

Date Brightness Start Highest point End Pass type
(mag) Time Alt. Az. Time Alt. Az. Time Alt. Az.
01 Oct 6.6 01:39:04 12° E 01:39:04 12° E 01:39:25 10° E visible
01 Oct 3.4 03:14:44 80° SW 03:14:52 82° SSW 03:19:02 10° ESE visible
01 Oct 4.4 04:50:24 10° W 04:54:11 35° SSW 04:57:57 10° SSE visible
02 Oct 3.6 03:09:43 69° SSE 03:09:43 69° SSE 03:13:31 10° ESE visible
02 Oct 4.7 04:45:24 12° W 04:48:35 29° SW 04:52:10 10° SSE visible
03 Oct 4.2 03:04:48 48° SE 03:04:48 48° SE 03:07:58 10° ESE visible
03 Oct 4.9 04:40:29 14° W 04:42:58 24° SW 04:46:17 10° SSE visible
04 Oct 4.9 03:00:00 32° SE 03:00:00 32° SE 03:02:22 10° ESE visible
04 Oct 5.1 04:35:41 16° WSW 04:37:17 19° SW 04:40:16 10° S visible
05 Oct 5.6 02:55:19 20° SE 02:55:19 20° SE 02:56:43 10° SE visible
05 Oct 5.3 04:31:01 15° SW 04:31:34 16° SW 04:34:04 10° S visible
06 Oct 6.3 02:50:47 11° SE 02:50:47 11° SE 02:51:01 10° SE visible
06 Oct 5.7 04:26:29 12° SW 04:26:29 12° SW 04:27:31 10° SSW visible
